Location: Bothwell
(42.3833°S, 147.0000°E)
Time: 04:49:32
(UTC+10:00)

UKube-1 - Visible Passes

Search period start: 25 September 2022 00:00
Search period end: 05 October 2022 01:00
Orbit: 608 x 614 km, 98.4° (Epoch: 24 September)

Date Brightness Start Highest point End Pass type
(mag) Time Alt. Az. Time Alt. Az. Time Alt. Az.
25 Sep ? 21:41:03 14° S 21:41:03 14° S 21:41:40 10° SSW visible
26 Sep ? 21:55:42 13° SSW 21:55:42 13° SSW 21:56:13 10° SSW visible
27 Sep ? 20:33:21 11° SSE 20:33:21 11° SSE 20:33:46 10° SSE visible
27 Sep ? 22:10:20 12° SSW 22:10:20 12° SSW 22:10:41 10° SSW visible
28 Sep ? 20:47:59 14° SSE 20:47:59 14° SSE 20:48:48 10° SSE visible
28 Sep ? 22:24:58 10° SSW 22:24:58 10° SSW 22:25:02 10° SSW visible
29 Sep ? 21:02:37 16° SSE 21:02:37 16° SSE 21:03:41 10° S visible
30 Sep ? 21:17:14 18° S 21:17:14 18° S 21:18:26 10° S visible
01 Oct ? 21:31:52 18° S 21:31:52 18° S 21:33:06 10° S visible
02 Oct ? 22:46:29 18° SSW 22:46:29 18° SSW 22:47:40 10° SSW visible
03 Oct ? 21:24:07 11° SE 21:24:07 11° SE 21:24:39 10° SSE visible
03 Oct ? 23:01:06 17° SSW 23:01:06 17° SSW 23:02:10 10° SSW visible
04 Oct ? 21:38:44 14° SSE 21:38:44 14° SSE 21:39:52 10° SSE visible
04 Oct ? 23:15:42 15° SSW 23:15:42 15° SSW 23:16:35 10° SSW visible
